Location: Bluejay Creek
(37.7819°N, 119.6118°W)
Time: 19:40:26
(UTC+00:00)

Daily predictions for brighter satellites

Satellite Brightness Start Highest point End
(mag) Time Altitude Azimuth Time Altitude Azimuth Time Altitude Azimuth
SJ 16-02 2.5 12:22:31 36° SSE 12:22:31 36° SSE 12:25:06 10° SSE
SL-16 R/B 2.3 12:24:24 61° N 12:24:24 61° N 12:29:12 10° NNE
CZ-2C R/B 4.5 12:21:36 10° N 12:22:41 17° N 12:22:41 17° N
Aureole 3 3.9 12:29:03 10° S 12:34:56 79° W 12:39:50 10° N
Cosmos 304 Rocket 3.5 12:39:00 79° W 12:39:04 80° WSW 12:43:49 10° SSE
Cosmos 371 Rocket 3.1 12:39:48 73° NW 12:40:13 81° WSW 12:45:02 10° SSE
Cosmos 2346 Rocket 4.3 12:38:09 10° SSW 12:44:14 69° W 12:50:18 10° N
Cosmos 2233 Rocket 4.0 12:42:19 26° NNW 12:45:44 56° W 12:51:46 10° SSW
Cosmos 1447 Rocket 4.4 12:42:33 10° SSW 12:48:45 67° W 12:55:04 10° N
Cosmos 1400 Rocket 4.0 12:47:14 12° N 12:50:23 38° ENE 12:53:47 10° SSE
Cosmos 2061 Rocket 4.0 12:46:14 10° NNW 12:52:11 55° W 12:58:12 10° SSW
Cosmos 1674 Rocket 3.9 12:52:43 10° S 12:57:05 67° E 13:01:29 10° NNE
Cosmos 1818 4.2 12:53:12 10° SSW 12:58:29 57° ESE 13:03:48 10° NE
H-2A R/B 3.5 13:00:05 15° S 13:00:54 16° SSE 13:03:51 10° SE
Cosmos 1452 Rocket 3.4 12:58:35 10° SSW 13:03:49 90° WNW 13:09:04 10° NNE
Cosmos 1331 Rocket 3.9 13:05:05 10° SSW 13:10:15 60° WNW 13:15:26 10° N
Cosmos 1943 3.1 13:04:54 10° SSW 13:10:30 85° WNW 13:16:08 10° NNE
Cosmos 1850 Rocket 4.3 13:07:28 10° NNW 13:12:37 65° ENE 13:17:44 10° SSE
Chandra Rocket (1) 4.2 13:09:51 17° SW 13:13:17 32° S 13:25:39 10° ESE
Cosmos 2369 Rocket 2.1 13:08:25 12° NNW 13:13:50 87° WSW 13:19:32 10° SSE
NOAA 12 4.0 13:09:16 10° NNE 13:14:36 85° WNW 13:19:54 10° SSW
CZ-4 R/B 3.7 13:09:53 10° N 13:14:40 75° WNW 13:19:20 10° SSW
Cosmos 2297 3.6 13:09:28 11° NNW 13:14:55 88° WSW 13:20:32 10° SSE
Meteor 1-11 4.3 13:11:39 10° S 13:17:30 87° W 13:23:22 10° N
SWARM C 4.5 13:14:57 10° SSW 13:18:11 57° W 13:21:28 10° N
SWARM A 4.0 13:15:01 10° S 13:18:19 71° W 13:21:37 10° N
Cosmos 1378 Rocket 3.8 13:18:25 10° SSW 13:22:26 40° W 13:26:29 10° N
Cosmos 2221 Rocket 3.6 13:22:23 10° S 13:26:54 89° W 13:31:27 10° N
Cosmos 1656 Rocket 4.5 13:27:08 21° WNW 13:29:49 30° WSW 13:34:39 10° SSW
Cosmos 2151 Rocket 3.5 13:29:25 10° NNW 13:33:50 64° W 13:38:12 10° S
Cosmos 1072 Rocket 4.4 13:30:04 10° N 13:36:12 73° W 13:42:23 10° S
Lacrosse 5 rocket 2.3 13:33:59 11° NNW 13:36:46 30° NE 13:39:42 10° ESE
USA 229 DEB 4.4 13:34:44 18° W 13:37:44 26° NW 13:43:09 10° NNE
USA 229 4.4 13:34:54 18° W 13:37:57 27° NW 13:43:23 10° NNE
Lacrosse 4 Rocket 3.2 13:35:53 10° N 13:39:14 26° ENE 13:42:33 10° ESE
Okean 1 Rocket 2.9 13:36:41 10° N 13:40:59 87° W 13:45:17 10° S
Hubble Space Telescope 3.1 13:39:29 10° SSW 13:41:46 15° SSE 13:44:03 10° SE
Helios 1A Rocket 2.6 13:40:51 10° S 13:44:06 49° W 13:47:23 10° NNW
USA 267 3.9 13:39:04 10° NNE 13:44:49 34° NNW 13:50:18 11° W
Sich 1 Rocket 3.5 13:41:31 10° N 13:46:02 76° W 13:50:27 10° S
Cosmos 1484 Rocket 2.4 13:44:46 10° N 13:48:17 77° WNW 13:51:45 10° SSW
Cosmos 968 Rocket 3.9 13:43:43 10° NNW 13:48:39 42° WSW 13:53:33 10° S
COSMO-SKYMED 1 2.5 13:45:55 10° S 13:49:56 56° W 13:54:00 10° NNW
ATLAS 3B R/B 3.9 13:50:31 10° W 13:56:42 26° NW 14:03:06 10° NNE
CENTAUR R/B 3.5 13:48:56 10° NW 13:57:33 62° WSW 14:06:51 10° SSE
BREEZE-M DEB (TANK) 3.0 13:55:54 14° WNW 13:57:50 31° N 14:01:53 10° ENE
IRS-1D 4.4 13:54:47 10° NNW 13:58:45 25° WNW 14:02:42 10° WSW
Cosmos 292 Rocket 3.9 13:54:07 10° NNW 13:58:55 77° ENE 14:03:39 10° SSE
SL-8 R/B 3.6 13:54:16 10° WSW 13:59:01 82° NW 14:03:48 10° NE
NOSS 2-2 (C) 4.0 13:57:26 10° NW 14:01:49 78° WSW 14:08:02 10° SSE
IGS 5A 3.3 13:58:10 10° N 14:02:08 81° WNW 14:06:05 10° SSW
SL-16 R/B 4.0 14:07:12 10° WNW 14:08:36 11° NW 14:10:01 10° NNW
Cosmos 1975 Rocket 3.3 14:04:26 10° S 14:08:41 75° E 14:12:58 10° N
Cosmos 1441 Rocket 3.3 14:06:51 10° SSW 14:10:00 38° WNW 14:13:08 10° N
Cosmos 1302 Rocket 4.4 14:06:36 10° SW 14:11:24 39° WNW 14:16:15 10° N
Cosmos 1315 Rocket 3.9 14:09:13 10° N 14:12:56 46° ENE 14:16:36 10° SSE
Cosmos 1992 Rocket 4.0 14:10:43 10° SSW 14:15:53 68° WNW 14:21:05 10° NNE
USA 234 3.4 14:12:13 10° SE 14:18:48 87° SW 14:25:24 10° NW
